Date String (YYYY-MM-DD hh:mm:ss) UTC,Instrument flags,absolute air pressure of the measurement (hPa),sample flow rate (lpm),inlet stack bypass flow (lpm),air temperature of the measurement (°C),ambient temperature measured by the external sensor (°C),aerosol sample conditioner tube jacket temperature (°C),OPC LED temperature (°C),internal box temperature (°C),relative humidity of the measurement (%),span deviation,mass concentration of particles derived from Lorenz-Mie calculation of OPC scattering (μg/m³),mass concentration of particles derived from Lorenz-Mie calculation of OPC scattering (μg/m³),mass concentration of particles derived from Lorenz-Mie calculation of OPC scattering (μg/m³)
DateTimeUTC,F1_M11,P_M11,Q1_M11,Q2_M11,T1_M11,T2_M11,T3_M11,T4_M11,T5_M11,U1_M11,ZSPAN_M11,X2_M11,X0_M11,X1_M11
2024-01-29 01:00:00,SystemResetWarning,0837.2,5.00,000.00,026.3,025.3,000.0,034.4,027.7,11.8,0000.0,0003.66,0008.21,0003.31
2024-01-29 01:01:00,SystemResetWarning,0837.2,5.00,000.00,026.3,025.3,000.0,034.4,027.8,11.8,0000.0,0003.69,0007.69,0003.33
2024-01-29 01:02:00,SystemResetWarning,0837.2,4.99,000.00,026.3,025.3,000.0,034.4,027.8,11.8,0000.0,0003.73,0007.60,0003.36
2024-01-29 01:03:00,SystemResetWarning,0837.2,4.99,000.00,026.3,025.3,000.0,034.4,027.8,11.7,0000.0,0003.77,0007.34,0003.39
2024-01-29 01:04:00,SystemResetWarning,0837.2,5.01,000.00,026.3,025.3,000.0,034.4,027.8,11.7,0000.0,0003.76,0006.88,0003.44
2024-01-29 01:05:00,SystemResetWarning,0837.2,5.01,000.00,026.3,025.4,000.0,034.5,027.8,11.7,0000.0,0003.78,0006.44,0003.48
2024-01-29 01:06:00,SystemResetWarning,0837.2,5.00,000.00,026.4,025.4,000.0,034.5,027.8,11.7,0000.0,0003.79,0006.51,0003.50
2024-01-29 01:07:00,SystemResetWarning,0837.2,5.00,000.00,026.4,025.4,000.0,034.5,027.8,11.6,0000.0,0003.81,0007.29,0003.51
2024-01-29 01:08:00,SystemResetWarning,0837.2,5.00,000.00,026.4,025.4,000.0,034.5,027.9,11.5,0000.0,0003.88,0007.57,0003.49
2024-01-29 01:09:00,SystemResetWarning,0837.2,4.99,000.00,026.4,024.9,000.0,034.5,027.9,11.5,0000.0,0003.88,0007.89,0003.46
2024-01-29 01:10:00,SystemResetWarning,0837.2,5.00,000.00,026.3,022.7,000.0,034.5,027.6,11.5,0000.0,0003.86,0008.10,0003.45
2024-01-29 01:11:00,SystemResetWarning,0837.2,5.01,000.00,026.2,021.9,000.0,034.4,027.4,11.6,0000.0,0003.84,0008.35,0003.42
2024-01-29 01:12:00,SystemResetWarning,0837.2,5.01,000.00,026.0,022.0,000.0,034.4,026.8,11.7,0000.0,0003.79,0008.24,0003.39
2024-01-29 01:13:00,SystemResetWarning,0837.2,5.00,000.00,025.9,022.4,000.0,034.3,026.7,11.8,0000.0,0003.75,0008.31,0003.36
2024-01-29 01:14:00,SystemResetWarning,0837.2,5.00,000.00,025.8,022.8,000.0,034.3,026.7,11.8,0000.0,0003.68,0008.22,0003.32
2024-01-29 01:15:00,SystemResetWarning,0837.2,5.00,000.00,025.7,023.1,000.0,034.2,026.8,11.8,0000.0,0003.65,0008.20,0003.27
2024-01-29 01:16:00,SystemResetWarning,0837.2,5.01,000.00,025.7,023.4,000.0,034.2,026.8,11.8,0000.0,0003.63,0008.13,0003.24
2024-01-29 01:17:00,SystemResetWarning,0837.2,5.01,000.00,025.7,023.7,000.0,034.1,026.9,11.8,0000.0,0003.60,0007.93,0003.21
2024-01-29 01:18:00,SystemResetWarning,0837.2,5.00,000.00,025.7,023.9,000.0,034.1,027.0,11.7,0000.0,0003.57,0007.72,0003.17
2024-01-29 01:19:00,SystemResetWarning,0837.2,4.99,000.00,025.7,024.1,000.0,034.1,027.1,11.7,0000.0,0003.47,0007.21,0003.13
2024-01-29 01:20:00,SystemResetWarning,0837.2,5.00,000.00,025.7,024.2,000.0,034.1,027.1,11.7,0000.0,0003.41,0006.71,0003.11
2024-01-29 01:21:00,SystemResetWarning,0837.2,5.00,000.00,025.7,024.3,000.0,034.0,027.1,11.7,0000.0,0003.39,0007.86,0003.07
2024-01-29 01:22:00,SystemResetWarning,0837.2,5.00,000.00,025.7,024.4,000.0,034.0,027.2,11.7,0000.0,0003.33,0008.04,0002.99
2024-01-29 01:23:00,SystemResetWarning,0837.2,5.01,000.00,025.8,024.5,000.0,034.0,027.2,11.7,0000.0,0003.28,0007.96,0002.89
2024-01-29 01:24:00,SystemResetWarning,0837.2,5.01,000.00,025.8,024.5,000.0,034.0,027.2,11.6,0000.0,0003.26,0007.96,0002.79
2024-01-29 01:25:00,SystemResetWarning,0837.2,5.00,000.00,025.8,024.6,000.0,034.0,027.2,11.6,0000.0,0003.23,0007.80,0002.74
2024-01-29 01:26:00,SystemResetWarning,0837.2,4.99,000.00,025.8,024.6,000.0,034.0,027.3,11.6,0000.0,0003.19,0007.69,0002.70
2024-01-29 01:27:00,SystemResetWarning,0837.2,4.99,000.00,025.8,024.7,000.0,034.0,027.3,11.7,0000.0,0003.15,0007.60,0002.68
2024-01-29 01:28:00,SystemResetWarning,0837.2,5.00,000.00,025.8,024.7,000.0,034.0,027.3,11.7,0000.0,0003.15,0007.73,0002.66
2024-01-29 01:29:00,SystemResetWarning,0837.2,5.00,000.00,025.8,024.7,000.0,034.0,027.3,11.7,0000.0,0003.14,0008.36,0002.64
2024-01-29 01:30:00,SystemResetWarning,0837.2,5.01,000.00,025.9,024.8,000.0,034.0,027.3,11.6,0000.0,0003.14,0008.91,0002.65
2024-01-29 01:31:00,SystemResetWarning,0837.2,5.00,000.00,025.9,024.8,000.0,034.1,027.4,11.6,0000.0,0003.14,0008.94,0002.65
2024-01-29 01:32:00,SystemResetWarning,0837.2,5.00,000.00,025.9,024.8,000.0,034.1,027.4,11.6,0000.0,0003.11,0008.24,0002.64
2024-01-29 01:33:00,SystemResetWarning,0837.2,5.00,000.00,025.9,024.8,000.0,034.1,027.4,11.6,0000.0,0003.09,0007.16,0002.59
2024-01-29 01:34:00,SystemResetWarning,0837.2,5.00,000.00,025.9,024.9,000.0,034.1,027.4,11.6,0000.0,0003.03,0007.80,0002.55
2024-01-29 01:35:00,SystemResetWarning,0837.2,5.00,000.00,026.0,024.9,000.0,034.1,027.4,11.6,0000.0,0002.96,0007.84,0002.52
2024-01-29 01:36:00,SystemResetWarning,0837.2,5.00,000.00,026.0,024.9,000.0,034.1,027.4,11.6,0000.0,0002.95,0007.82,0002.47
2024-01-29 01:37:00,SystemResetWarning,0837.2,5.00,000.00,026.0,024.9,000.0,034.1,027.4,11.6,0000.0,0002.93,0007.87,0002.44
2024-01-29 01:38:00,SystemResetWarning,0837.2,5.00,000.00,026.0,024.9,000.0,034.1,027.4,11.6,0000.0,0002.87,0007.90,0002.36
2024-01-29 01:39:00,SystemResetWarning,0837.2,5.00,000.00,026.0,024.9,000.0,034.2,027.5,11.6,0000.0,0002.79,0007.75,0002.28
2024-01-29 01:40:00,SystemResetWarning,0837.2,5.01,000.00,026.0,025.0,000.0,034.2,027.5,11.6,0000.0,0002.73,0007.00,0002.22
2024-01-29 01:41:00,SystemResetWarning,0837.2,5.01,000.00,026.0,025.0,000.0,034.2,027.5,11.6,0000.0,0002.65,0006.09,0002.12
2024-01-29 01:42:00,SystemResetWarning,0837.2,5.00,000.00,026.0,025.0,000.0,034.2,027.5,11.6,0000.0,0002.56,0005.99,0002.04
2024-01-29 01:43:00,SystemResetWarning,0837.2,5.00,000.00,026.0,025.0,000.0,034.2,027.5,11.6,0000.0,0002.51,0005.89,0001.96
2024-01-29 01:44:00,SystemResetWarning,0837.2,5.00,000.00,026.1,025.0,000.0,034.2,027.5,11.6,0000.0,0002.50,0005.80,0001.94
2024-01-29 01:45:00,SystemResetWarning,0837.2,5.00,000.00,026.1,025.0,000.0,034.2,027.5,11.7,0000.0,0002.51,0005.56,0001.93
2024-01-29 01:46:00,SystemResetWarning,0837.2,4.99,000.00,026.1,025.0,000.0,034.2,027.5,11.7,0000.0,0002.53,0006.02,0001.95
2024-01-29 01:47:00,SystemResetWarning,0837.2,4.99,000.00,026.1,025.0,000.0,034.2,027.5,11.6,0000.0,0002.54,0006.06,0001.98
2024-01-29 01:48:00,SystemResetWarning,0837.2,4.99,000.00,026.1,025.0,000.0,034.3,027.5,11.6,0000.0,0002.51,0007.10,0001.95
2024-01-29 01:49:00,SystemResetWarning,0837.2,5.01,000.00,026.1,025.0,000.0,034.3,027.5,11.6,0000.0,0002.50,0006.92,0001.97
2024-01-29 01:50:00,SystemResetWarning,0837.2,5.01,000.00,026.1,025.0,000.0,034.3,027.5,11.6,0000.0,0002.50,0006.91,0001.97
2024-01-29 01:51:00,SystemResetWarning,0837.2,5.01,000.00,026.1,025.0,000.0,034.3,027.5,11.6,0000.0,0002.46,0006.67,0001.93
2024-01-29 01:52:00,SystemResetWarning,0837.2,5.00,000.00,026.1,025.0,000.0,034.3,027.5,11.5,0000.0,0002.42,0006.48,0001.92
2024-01-29 01:53:00,SystemResetWarning,0837.2,5.00,000.00,026.1,025.0,000.0,034.3,027.5,11.5,0000.0,0002.38,0006.33,0001.90
2024-01-29 01:54:00,SystemResetWarning,0837.1,4.99,000.00,026.1,025.0,000.0,034.3,027.5,11.5,0000.0,0002.35,0006.27,0001.90
2024-01-29 01:55:00,SystemResetWarning,0837.2,5.00,000.00,026.1,025.0,000.0,034.3,027.5,11.5,0000.0,0002.35,0006.23,0001.91
2024-01-29 01:56:00,SystemResetWarning,0837.2,4.99,000.00,026.1,025.0,000.0,034.3,027.5,11.5,0000.0,0002.34,0005.54,0001.91
2024-01-29 01:57:00,SystemResetWarning,0837.2,4.99,000.00,026.1,025.0,000.0,034.3,027.5,11.5,0000.0,0002.33,0004.66,0001.89
2024-01-29 01:58:00,SystemResetWarning,0837.2,5.00,000.00,026.1,025.0,000.0,034.3,027.6,11.5,0000.0,0002.27,0004.53,0001.85
2024-01-29 01:59:00,SystemResetWarning,0837.2,5.00,000.00,026.1,025.1,000.0,034.3,027.6,11.6,0000.0,0002.27,0003.40,0001.84
